[[{"header":{"parameterUnit":"m.s-1","parameterCategory":1,"la1":30.2991,"la2":30.254,"lo1":-89.0895,"lo2":-89.0444,"dy":0.0017,"dx":0.0017,"nx":28,"ny":28,"refTime":"2023-08-19T21:00:00:Z","depth":0,"parameterNumber":2,"parameterNumberName":"U-component_of_WINDS"},"data":[0,0,0,0,0,0,0,0,0,0,0,0,0,0,0,0,0,0,0,0,0,0,0,0,0,0,0,0,0,0,0,0,0,0,0,0,0,0,0,0,0,0,0,0,0,0,0,0,0,0,0,0,0,0,0,0,0,0,-5.7562,-5.7562,0,-5.7555,-5.7555,-5.7555,-5.7348,-5.7342,-5.7337,-5.7332,-5.7327,-5.7332,-5.7336,0,0,0,0,0,0,0,0,0,0,0,0,0,-5.7397,-5.7401,-5.7562,-5.7562,-5.7562,-5.7555,-5.7555,-5.7555,-5.7348,-5.7342,-5.7335,-5.7329,-5.7325,-5.7331,-5.7337,0,0,0,0,0,0,0,0,0,0,0,0,0,-5.7438,-5.7403,-5.7562,-5.7458,-5.7449,-5.7555,-5.7555,-5.7555,-5.735,-5.7342,-5.7334,-5.7326,-5.7323,-5.733,-5.7338,-5.7544,0,0,-5.736,-5.7363,0,0,0,0,0,0,0,0,-5.7436,-5.7444,-5.7473,-5.7465,-5.7455,-5.7444,-5.7495,-5.7552,-5.7352,-5.7388,-5.7332,-5.7322,-5.7373,-5.7375,-5.7392,-5.7544,-5.7544,-5.7361,-5.7365,-5.7368,-5.737,0,0,0,0,0,0,0,-5.7433,-5.7443,-5.7559,-5.7474,-5.7463,-5.7412,-5.7409,-5.7505,-5.7425,-5.7384,-5.7369,-5.7371,-5.7366,-5.7385,-5.739,-5.7544,-5.7361,-5.7367,-5.7372,-5.7374,-5.7863,-5.7872,0,0,0,0,0,0,-5.7444,-5.7442,-5.756,-5.7559,-5.7425,-5.7422,-5.7418,-5.7456,-5.7424,-5.7411,-5.7377,-5.7361,-5.7377,-5.7382,-5.7389,-5.7627,-5.7368,-5.7375,-5.7379,-5.7855,-5.7865,-5.7875,0,0,0,0,0,0,-5.7442,-5.7457,-5.756,-5.7497,-5.7506,-5.7433,-5.7477,-5.746,-5.7479,-5.7419,-5.7404,-5.7412,-5.7371,-5.7379,-5.7507,-5.7624,-5.7378,-5.7385,-5.7845,-5.7858,-5.787,-5.8107,0,0,0,0,0,0,-5.7438,-5.7457,-5.7535,-5.75,-5.751,-5.7678,-5.7484,-5.7466,-5.7492,-5.747,-5.7447,-5.7436,-5.7365,-5.7497,-5.7514,-5.763,-5.7391,-5.7834,-5.7851,-5.7866,-5.8088,-5.8126,-5.8159,0,0,0,0,0,-5.7433,-5.7603,-5.754,-5.7555,-5.7605,-5.7685,-5.7691,-5.7606,-5.7502,-5.7579,-5.7541,-5.7436,-5.7609,-5.7512,-5.7529,-5.7649,-5.7826,-5.7846,-5.7865,-5.8072,-5.8119,-5.8158,0,0,0,0,0,0,-5.7654,-5.7596,-5.7526,-5.7689,-5.7694,-5.765,-5.7745,-5.7658,-5.7692,-5.767,-5.7564,-5.756,-5.7705,-5.769,-5.7582,-5.7847,-5.7699,-5.7723,-5.7851,-5.7894,-5.7929,-5.7929,-5.7397,0,0,0,0,0,-5.7722,-5.7791,-5.7737,-5.7886,-5.7892,-5.7819,-5.785,-5.7784,-5.7785,-5.7786,-5.7756,-5.7761,-5.7816,-5.7855,-5.7902,-5.8085,-5.8077,-5.8176,-5.8212,-5.8241,-5.8262,-5.8357,-5.84,-5.7938,-5.7938,-5.7938,0,0,-5.7863,-5.7839,-5.789,-5.793,-5.7925,-5.8,-5.7822,-5.7908,-5.7962,-5.7799,-5.7917,-5.7896,-5.7894,-5.8051,-5.8118,-5.8043,-5.8388,-5.8266,-5.8289,-5.8295,-5.8381,-5.8425,-5.8464,-5.7951,-5.7949,-5.7947,0,0,-5.8156,-5.8147,-5.8269,-5.8268,-5.8263,-5.8213,-5.8243,-5.8213,-5.8192,-5.8309,-5.8188,-5.8251,-5.8348,-5.8351,-5.8366,-5.8661,-5.8566,-5.868,-5.8864,-5.8957,-5.8993,-5.9025,-5.9129,-5.9167,-5.8702,-5.8702,-5.8703,0,-5.8332,-5.8438,-5.8343,-5.8437,-5.8458,-5.8313,-5.8436,-5.844,-5.8452,-5.847,-5.8385,-5.8504,-5.8493,-5.8647,-5.8719,-5.8736,-5.8766,-5.8681,-5.8996,-5.9026,-5.9055,-5.9152,-5.9192,-5.8716,-5.8714,-5.8713,-5.8712,0,-5.8653,-5.8729,-5.8828,-5.8842,-5.8874,-5.8983,-5.8904,-5.8949,-5.888,-5.884,-5.896,-5.8942,-5.8982,-5.9014,-5.8949,-5.9159,-5.9112,-5.9014,-5.8863,-5.9114,-5.9204,-5.9241,-5.8736,-5.8731,-5.8727,-5.8723,0,0,-5.9085,-5.9044,-5.9082,-5.9086,-5.907,-5.9127,-5.9229,-5.9267,-5.9307,-5.932,-5.9402,-5.9488,-5.9396,-5.9413,-5.9347,-5.9429,-5.9662,-5.9319,-5.9317,-5.9382,-5.9891,-5.9964,-6.0009,-5.9599,-5.9606,-5.9612,-5.9891,0,-5.9367,-5.9537,-5.9455,-5.9635,-5.9703,-5.9567,-5.9655,-5.9655,-5.9621,-5.9673,-5.9634,-5.9696,-5.9571,-5.958,-5.9656,-5.9618,-5.9762,-5.9597,-5.9674,-5.9678,-5.9677,-6.0056,-6.0134,-6.0398,-5.9925,-5.9931,-5.9936,0,-5.9719,-5.9745,-5.9932,-5.9902,-5.9928,-6.0009,-6.0037,-6.009,-6.0087,-6.0056,-6.0075,-5.9989,-6.0087,-5.9939,-6.0072,-5.9961,-5.9988,-5.9974,-5.9982,-5.9985,-5.9821,-6.0067,-6.048,-6.052,-5.999,-5.9986,-5.9982,0,-6.0013,-6.0096,-6.0217,-6.0225,-6.0194,-6.0254,-6.0244,-6.0233,-6.0262,-6.0287,-6.0304,-6.0342,-6.0362,-6.0393,-6.0319,-6.0219,-6.0462,-6.0308,-6.0438,-6.044,-6.0494,-6.0491,-6.0915,-6.0515,-6.0515,-6.0514,-6.0513,0,-6.0335,-6.0454,-6.0348,-6.0424,-6.0553,-6.0458,-6.0588,-6.0564,-6.0556,-6.0623,-6.0509,-6.0575,-6.0475,-6.0532,-6.0475,-6.0593,-6.0604,-6.0581,-6.0564,-6.059,-6.0593,-6.0604,-6.0583,-6.0524,-6.0522,-6.052,-6.0518,0,-6.0684,-6.0619,-6.0742,-6.0702,-6.0695,-6.0792,-6.0758,-6.0826,-6.0783,-6.087,-6.0885,-6.0819,-6.0879,-6.0809,-6.0865,-6.0827,-6.0986,-6.0943,-6.0986,-6.0973,-6.1106,-6.1094,-6.1551,-6.1606,-6.1174,-6.1178,-6.1181,0,-6.0894,-6.0982,-6.0951,-6.0988,-6.0985,-6.1046,-6.1073,-6.0984,-6.1017,-6.1021,-6.1088,-6.1139,-6.1174,-6.1278,-6.1234,-6.1276,-6.1232,-6.1389,-6.1237,-6.126,-6.1232,-6.1226,-6.1234,-6.142,-6.1425,-6.1429,-6.1433,0,-6.1271,-6.1234,-6.1278,-6.1311,-6.1348,-6.137,-6.1383,-6.142,-6.1326,-6.137,-6.143,-6.1458,-6.1513,-6.1565,-6.1594,-6.1584,-6.1494,-6.1481,-6.1513,-6.1539,-6.156,-6.1548,-6.1069,-6.147,-6.1467,-6.1464,-6.1462,-6.146,-6.1555,-6.1626,-6.1615,-6.1668,-6.1669,-6.1684,-6.1745,-6.171,-6.1758,-6.1795,-6.174,-6.1814,-6.1809,-6.1839,-6.1839,-6.1896,-6.1829,-6.1876,-6.1887,-6.1899,-6.1918,-6.1553,-6.1902,-6.1901,-6.1899,-6.1898,-6.1898,0,-6.1924,-6.1911,-6.196,-6.1982,-6.2024,-6.1934,-6.1945,-6.1985,-6.2052,-6.2055,-6.2092,-6.216,-6.221,-6.2171,-6.2212,-6.2265,-6.2224,-6.2279,-6.2273,-6.2272,-6.1977,-6.1945,-6.2311,-6.2311,-6.2311,-6.2311,-6.231,-6.231,-6.2121,-6.2236,-6.2199,-6.2313,-6.2298,-6.237,-6.2383,-6.2396,-6.2397,-6.2479,-6.2519,-6.2493,-6.2479,-6.2518,-6.2559,-6.2546,-6.2566,-6.2635,-6.2608,-6.2333,-6.2293,-6.2254,-6.2222,-6.2641,-6.2641,-6.2896,-6.2899,-6.2901]},{"header":{"parameterUnit":"m.s-1","parameterCategory":1,"la1":30.2991,"la2":30.254,"lo1":-89.0895,"lo2":-89.0444,"dy":0.0017,"dx":0.0017,"nx":28,"ny":28,"refTime":"2023-08-19T21:00:00:Z","depth":0,"parameterNumber":3,"parameterNumberName":"V-component_of_WINDS"},"data":[0,0,0,0,0,0,0,0,0,0,0,0,0,0,0,0,0,0,0,0,0,0,0,0,0,0,0,0,0,0,0,0,0,0,0,0,0,0,0,0,0,0,0,0,0,0,0,0,0,0,0,0,0,0,0,0,0,0,-0.4493,-0.4493,0,-0.4483,-0.4483,-0.4483,-0.4533,-0.4534,-0.4536,-0.4537,-0.4524,-0.4523,-0.4521,0,0,0,0,0,0,0,0,0,0,0,0,0,-0.4552,-0.4551,-0.4493,-0.4493,-0.4493,-0.4483,-0.4483,-0.4483,-0.4533,-0.4534,-0.4536,-0.4538,-0.4525,-0.4523,-0.4521,0,0,0,0,0,0,0,0,0,0,0,0,0,-0.4533,-0.455,-0.4493,-0.4517,-0.4519,-0.4483,-0.4483,-0.4483,-0.4532,-0.4534,-0.4537,-0.4539,-0.4525,-0.4523,-0.452,-0.4461,0,0,-0.4513,-0.4511,0,0,0,0,0,0,0,0,-0.4534,-0.453,-0.4513,-0.4515,-0.4517,-0.4511,-0.4499,-0.4475,-0.4532,-0.4527,-0.4537,-0.454,-0.4518,-0.4516,-0.4509,-0.446,-0.446,-0.4512,-0.4511,-0.451,-0.4509,0,0,0,0,0,0,0,-0.4535,-0.4531,-0.4489,-0.4513,-0.4515,-0.4526,-0.4526,-0.4495,-0.451,-0.4528,-0.4531,-0.4529,-0.4519,-0.4512,-0.4509,-0.4459,-0.4512,-0.451,-0.4509,-0.4508,-0.4358,-0.4355,0,0,0,0,0,0,-0.4534,-0.4532,-0.4489,-0.4489,-0.4531,-0.4524,-0.4523,-0.4511,-0.4511,-0.4513,-0.4528,-0.4532,-0.4515,-0.4512,-0.4509,-0.4437,-0.451,-0.4507,-0.4506,-0.436,-0.4357,-0.4354,0,0,0,0,0,0,-0.4535,-0.4529,-0.449,-0.4511,-0.4507,-0.452,-0.4506,-0.451,-0.4502,-0.4511,-0.4514,-0.4517,-0.4517,-0.4513,-0.4472,-0.4438,-0.4506,-0.4504,-0.4363,-0.4359,-0.4356,-0.4294,0,0,0,0,0,0,-0.4536,-0.4529,-0.4508,-0.451,-0.4506,-0.4454,-0.4504,-0.4508,-0.4498,-0.4503,-0.4502,-0.4503,-0.4518,-0.4475,-0.4469,-0.4435,-0.4502,-0.4366,-0.4361,-0.4357,-0.4299,-0.4289,-0.428,0,0,0,0,0,-0.4538,-0.4491,-0.4507,-0.4501,-0.4479,-0.4452,-0.4449,-0.4467,-0.4495,-0.4472,-0.4478,-0.4503,-0.4443,-0.4471,-0.4464,-0.4429,-0.4368,-0.4363,-0.4357,-0.4304,-0.4291,-0.428,0,0,0,0,0,0,-0.4484,-0.4492,-0.4509,-0.4462,-0.4456,-0.446,-0.4433,-0.4454,-0.4439,-0.4445,-0.4468,-0.4467,-0.4421,-0.4421,-0.4453,-0.437,-0.441,-0.4403,-0.4371,-0.4359,-0.435,-0.435,-0.45,0,0,0,0,0,-0.4466,-0.4444,-0.4452,-0.4409,-0.4406,-0.4419,-0.4408,-0.4423,-0.4417,-0.4414,-0.4417,-0.4409,-0.4388,-0.4374,-0.4356,-0.43,-0.4299,-0.4272,-0.4262,-0.4254,-0.4247,-0.4215,-0.4203,-0.4336,-0.4336,-0.4336,0,0,-0.443,-0.4432,-0.4416,-0.4399,-0.4396,-0.437,-0.4417,-0.4389,-0.437,-0.441,-0.4371,-0.4372,-0.4366,-0.4316,-0.4295,-0.4315,-0.421,-0.4247,-0.4241,-0.4238,-0.4208,-0.4196,-0.4184,-0.4333,-0.4333,-0.4334,0,0,-0.4351,-0.4351,-0.4314,-0.431,-0.4305,-0.4314,-0.4305,-0.4306,-0.4308,-0.427,-0.4298,-0.4276,-0.424,-0.4233,-0.4225,-0.414,-0.4162,-0.4133,-0.4082,-0.4051,-0.404,-0.4031,-0.3999,-0.3987,-0.4127,-0.4127,-0.4127,0,-0.4306,-0.4271,-0.4292,-0.4262,-0.4252,-0.4287,-0.4249,-0.4244,-0.4232,-0.4224,-0.4247,-0.4201,-0.4199,-0.4147,-0.4126,-0.4119,-0.4108,-0.4133,-0.404,-0.4031,-0.4023,-0.3992,-0.398,-0.4123,-0.4124,-0.4124,-0.4124,0,-0.4215,-0.4189,-0.416,-0.4148,-0.4135,-0.4101,-0.4116,-0.41,-0.4115,-0.4121,-0.408,-0.4079,-0.4059,-0.4049,-0.4064,-0.3998,-0.4011,-0.4037,-0.4077,-0.4006,-0.3977,-0.3966,-0.4118,-0.4119,-0.412,-0.4121,0,0,-0.4101,-0.4101,-0.4089,-0.4083,-0.4079,-0.4059,-0.4026,-0.4007,-0.3992,-0.3982,-0.3953,-0.3921,-0.3944,-0.3935,-0.3949,-0.3922,-0.3852,-0.3951,-0.3951,-0.3931,-0.3777,-0.3756,-0.3742,-0.3867,-0.3865,-0.3863,-0.3777,0,-0.4022,-0.3965,-0.3983,-0.3925,-0.39,-0.3933,-0.3903,-0.3896,-0.3901,-0.3879,-0.3884,-0.386,-0.3894,-0.3888,-0.3862,-0.3866,-0.3821,-0.3873,-0.3838,-0.3837,-0.3837,-0.3728,-0.3706,-0.3625,-0.3766,-0.3764,-0.3763,0,-0.3922,-0.3908,-0.3848,-0.3846,-0.3836,-0.3809,-0.3792,-0.3772,-0.3764,-0.3769,-0.3758,-0.3777,-0.3742,-0.3783,-0.3734,-0.3769,-0.3756,-0.3755,-0.3752,-0.3749,-0.3794,-0.3719,-0.36,-0.3587,-0.3746,-0.3747,-0.3749,0,-0.3843,-0.3809,-0.3768,-0.3762,-0.3759,-0.3739,-0.3737,-0.3731,-0.3718,-0.3703,-0.3694,-0.3675,-0.3664,-0.3648,-0.3661,-0.369,-0.3608,-0.3652,-0.361,-0.3609,-0.359,-0.3591,-0.3465,-0.3584,-0.3585,-0.3585,-0.3585,0,-0.3751,-0.3713,-0.3732,-0.3706,-0.3663,-0.3683,-0.3639,-0.364,-0.3635,-0.3609,-0.3636,-0.361,-0.363,-0.3605,-0.3615,-0.3572,-0.3567,-0.3569,-0.3571,-0.3565,-0.3565,-0.3556,-0.3561,-0.3582,-0.3582,-0.3583,-0.3584,0,-0.3655,-0.3667,-0.3624,-0.3624,-0.3623,-0.3591,-0.3591,-0.3566,-0.3572,-0.3539,-0.3532,-0.3541,-0.3514,-0.3525,-0.3497,-0.3503,-0.3446,-0.3458,-0.3449,-0.3451,-0.3408,-0.3411,-0.327,-0.3252,-0.3385,-0.3384,-0.3383,0,-0.3595,-0.3566,-0.3563,-0.3548,-0.3543,-0.3519,-0.3505,-0.3523,-0.3507,-0.3495,-0.3471,-0.3446,-0.3427,-0.3382,-0.3385,-0.3363,-0.3372,-0.3325,-0.3369,-0.3363,-0.3369,-0.337,-0.3366,-0.3315,-0.3314,-0.3312,-0.3311,0,-0.3487,-0.3494,-0.3474,-0.3455,-0.3438,-0.3424,-0.3412,-0.3397,-0.3414,-0.3395,-0.3368,-0.3353,-0.3323,-0.3297,-0.3277,-0.3273,-0.3294,-0.3297,-0.3286,-0.3279,-0.3274,-0.3274,-0.3422,-0.33,-0.3301,-0.3302,-0.3303,-0.3303,-0.3406,-0.3381,-0.3374,-0.335,-0.3342,-0.333,-0.3306,-0.3309,-0.3287,-0.3264,-0.3276,-0.3243,-0.3234,-0.3209,-0.3202,-0.3175,-0.3194,-0.3178,-0.3174,-0.3169,-0.3162,-0.328,-0.3172,-0.3172,-0.3173,-0.3173,-0.3173,0,-0.3297,-0.3294,-0.3272,-0.3254,-0.3234,-0.3257,-0.3244,-0.3226,-0.3197,-0.3187,-0.3167,-0.3134,-0.3109,-0.3109,-0.3085,-0.3064,-0.3073,-0.3057,-0.3058,-0.3056,-0.3148,-0.316,-0.305,-0.305,-0.305,-0.305,-0.305,-0.305,-0.3239,-0.3196,-0.3201,-0.3154,-0.3152,-0.312,-0.311,-0.3098,-0.309,-0.3052,-0.3031,-0.3032,-0.3026,-0.3001,-0.2978,-0.2979,-0.2968,-0.2948,-0.2951,-0.3038,-0.305,-0.3061,-0.3072,-0.2946,-0.2945,-0.2861,-0.286,-0.286]}]]